| time (UTC) | temp F | wind direction | speed knots | gust knots | rain 1hr in | rain 24hr in | rain mn in | humidity % | barometer mb |
| 20260507002742 | 49 | 264 | 2.6 | 7.8 | 0.00 | 0.00 | 0.00 | 87 | 1013.9 |
| 20260507002227 | 49 | 262 | 3.5 | 7.8 | 0.00 | 0.01 | 0.00 | 87 | 1013.8 |
| 20260507001732 | 49 | 301 | 2.6 | 6.1 | 0.00 | 0.01 | 0.00 | 87 | 1013.9 |
| 20260507001227 | 49 | 231 | 3.5 | 7.8 | 0.00 | 0.03 | 0.00 | 86 | 1013.7 |
| 20260507000728 | 49 | 257 | 5.2 | 7.8 | 0.00 | 0.03 | 0.00 | 86 | 1013.6 |
| 20260507000227 | 49 | 257 | 4.3 | 6.1 | 0.00 | 0.03 | 0.00 | 86 | 1013.8 |
| 20260506235738 | 49 | 248 | 3.5 | 7.0 | 0.00 | 0.03 | 0.00 | 86 | 1013.6 |
| 20260506235226 | 49 | 248 | 3.5 | 7.0 | 0.00 | 0.03 | 0.00 | 86 | 1013.8 |
| 20260506234727 | 49 | 276 | 3.5 | 6.1 | 0.00 | 0.03 | 0.00 | 86 | 1013.6 |
| 20260506234227 | 49 | 288 | 1.7 | 6.1 | 0.00 | 0.04 | 0.00 | 86 | 1013.7 |
| 20260506233727 | 49 | 226 | 2.6 | 7.8 | 0.00 | 0.04 | 0.00 | 86 | 1013.6 |
| 20260506233615 | 49 | 293 | 3.5 | 9.6 | 0.00 | 0.04 | 0.00 | 86 | 1013.5 |
| 20260506232727 | 49 | 256 | 3.5 | 9.6 | 0.00 | 0.04 | 0.00 | 85 | 1013.7 |
| 20260506232226 | 49 | 222 | 2.6 | 7.0 | 0.00 | 0.04 | 0.00 | 86 | 1013.6 |
| 20260506231726 | 50 | 305 | 2.6 | 8.7 | 0.00 | 0.04 | 0.00 | 85 | 1013.4 |
| 20260506231234 | 50 | 286 | 2.6 | 8.7 | 0.00 | 0.04 | 0.00 | 85 | 1013.5 |
| 20260506230726 | 50 | 314 | 1.7 | 7.8 | 0.00 | 0.04 | 0.00 | 85 | 1013.6 |
| 20260506230229 | 50 | 273 | 2.6 | 7.8 | 0.00 | 0.04 | 0.00 | 85 | 1013.4 |
| 20260506225727 | 50 | 233 | 3.5 | 7.8 | 0.00 | 0.04 | 0.00 | 85 | 1013.7 |
| 20260506225227 | 50 | 304 | 4.3 | 8.7 | 0.00 | 0.04 | 0.00 | 85 | 1013.6 |
| 20260506225112 | 50 | 262 | 3.5 | 8.7 | 0.00 | 0.04 | 0.00 | 85 | 1013.5 |
| 20260506224227 | 50 | 231 | 3.5 | 8.7 | 0.00 | 0.04 | 0.00 | 85 | 1013.4 |
| 20260506223726 | 50 | 278 | 3.5 | 8.7 | 0.00 | 0.04 | 0.00 | 85 | 1013.2 |
| 20260506223226 | 50 | 226 | 4.3 | 7.8 | 0.00 | 0.04 | 0.00 | 84 | 1013.3 |
| 20260506222732 | 50 | 260 | 3.5 | 8.7 | 0.00 | 0.04 | 0.00 | 85 | 1013.2 |
| 20260506222228 | 50 | 262 | 2.6 | 9.6 | 0.00 | 0.04 | 0.00 | 84 | 1013.1 |
| 20260506222113 | 50 | 311 | 7.0 | 9.6 | 0.00 | 0.04 | 0.00 | 84 | 1013.2 |
| 20260506222021 | 50 | 240 | 6.1 | 8.7 | 0.00 | 0.04 | 0.00 | 84 | 1013.0 |
| 20260506221930 | 50 | 264 | 4.3 | 11.3 | 0.00 | 0.04 | 0.00 | 84 | 1013.1 |
| 20260506221814 | 50 | 300 | 3.5 | 11.3 | 0.00 | 0.04 | 0.00 | 84 | 1013.3 |
| 20260506215656 | 50 | 258 | 6.1 | 10.4 | 0.00 | 0.04 | 0.04 | 84 | 1013.2 |
| 20260506215155 | 50 | 258 | 4.3 | 9.6 | 0.00 | 0.04 | 0.04 | 84 | 1013.1 |
| 20260506215040 | 50 | 255 | 2.6 | 8.7 | 0.00 | 0.04 | 0.04 | 84 | 1013.2 |
| 20260506214540 | 50 | 260 | 3.5 | 6.1 | 0.00 | 0.04 | 0.04 | 84 | 1013.2 |
| 20260506213656 | 50 | 296 | 5.2 | 6.1 | 0.00 | 0.04 | 0.04 | 84 | 1012.9 |
| 20260506213156 | 50 | 269 | 3.5 | 7.8 | 0.00 | 0.04 | 0.04 | 84 | 1013.0 |
| 20260506212655 | 50 | 236 | 6.1 | 9.6 | 0.00 | 0.04 | 0.04 | 84 | 1012.9 |
| 20260506212630 | 50 | 280 | 4.3 | 9.6 | 0.00 | 0.04 | 0.04 | 84 | 1012.9 |
| 20260506211705 | 50 | 261 | 3.5 | 9.6 | 0.00 | 0.04 | 0.04 | 83 | 1012.5 |
| 20260506211458 | 50 | 289 | 5.2 | 8.7 | 0.00 | 0.04 | 0.04 | 83 | 1012.5 |
| 20260506211329 | 50 | 277 | 6.1 | 9.6 | 0.00 | 0.04 | 0.04 | 83 | 1012.6 |
| 20260506210158 | 50 | 273 | 7.0 | 8.7 | 0.00 | 0.04 | 0.04 | 83 | 1012.7 |
| 20260506205655 | 50 | 249 | 3.5 | 10.4 | 0.00 | 0.04 | 0.04 | 83 | 1012.6 |
| 20260506205159 | 50 | 265 | 7.8 | 10.4 | 0.00 | 0.04 | 0.04 | 82 | 1012.6 |
| 20260506205027 | 50 | 281 | 0.0 | 9.6 | 0.00 | 0.04 | 0.04 | 83 | 1012.5 |
| 20260506204156 | 50 | 256 | 6.1 | 9.6 | 0.00 | 0.04 | 0.04 | 82 | 1012.6 |
| 20260506203655 | 51 | 301 | 5.2 | 9.6 | 0.00 | 0.04 | 0.04 | 83 | 1012.6 |
| 20260506203155 | 51 | 302 | 3.5 | 11.3 | 0.00 | 0.04 | 0.04 | 84 | 1012.6 |
| 20260506202656 | 51 | 86 | 0.9 | 11.3 | 0.00 | 0.04 | 0.04 | 84 | 1012.3 |
| 20260506202614 | 51 | 271 | 3.5 | 11.3 | 0.00 | 0.04 | 0.04 | 85 | 1012.6 |
| 20260506201725 | 51 | 254 | 4.3 | 11.3 | 0.00 | 0.04 | 0.04 | 85 | 1012.4 |
| 20260506201224 | 51 | 341 | 6.1 | 8.7 | 0.00 | 0.04 | 0.04 | 86 | 1012.2 |
| 20260506200728 | 52 | 309 | 3.5 | 8.7 | 0.00 | 0.04 | 0.04 | 85 | 1012.4 |
| 20260506200229 | 52 | 271 | 2.6 | 8.7 | 0.00 | 0.04 | 0.04 | 85 | 1012.2 |
| 20260506195656 | 52 | 294 | 2.6 | 12.2 | 0.00 | 0.04 | 0.04 | 85 | 1012.0 |
| 20260506195209 | 52 | 278 | 4.3 | 12.2 | 0.00 | 0.04 | 0.04 | 85 | 1012.1 |
| 20260506194926 | 52 | 256 | 2.6 | 7.0 | 0.00 | 0.04 | 0.04 | 85 | 1011.7 |
| 20260506194834 | 52 | 251 | 3.5 | 5.2 | 0.00 | 0.04 | 0.04 | 85 | 1012.1 |
| 20260506193711 | 52 | 260 | 2.6 | 9.6 | 0.00 | 0.04 | 0.04 | 85 | 1011.9 |
| 20260506193211 | 52 | 302 | 5.2 | 9.6 | 0.00 | 0.04 | 0.04 | 85 | 1011.8 |
| 20260506192657 | 53 | 247 | 2.6 | 7.0 | 0.00 | 0.04 | 0.04 | 84 | 1011.8 |
| 20260506192317 | 53 | 251 | 0.9 | 7.0 | 0.00 | 0.04 | 0.04 | 84 | 1011.7 |
| 20260506192100 | 53 | 305 | 2.6 | 10.4 | 0.00 | 0.04 | 0.04 | 84 | 1011.7 |
| 20260506192009 | 53 | 1 | 2.6 | 10.4 | 0.00 | 0.04 | 0.04 | 84 | 1011.6 |
| 20260506191901 | 53 | 293 | 4.3 | 9.6 | 0.00 | 0.04 | 0.04 | 84 | 1011.6 |
| 20260506191816 | 53 | 333 | 3.5 | 9.6 | 0.00 | 0.04 | 0.00 | 85 | 1011.4 |
| 20260506185655 | 53 | 252 | 6.1 | 7.8 | 0.00 | 0.05 | 0.04 | 85 | 1011.5 |
| 20260506185212 | 53 | 326 | 5.2 | 9.6 | 0.00 | 0.05 | 0.04 | 84 | 1011.4 |
| 20260506184657 | 53 | 262 | 2.6 | 9.6 | 0.00 | 0.05 | 0.04 | 84 | 1011.3 |
| 20260506184155 | 53 | 252 | 3.5 | 9.6 | 0.00 | 0.05 | 0.04 | 84 | 1011.3 |
| 20260506183658 | 53 | 296 | 3.5 | 9.6 | 0.00 | 0.05 | 0.04 | 83 | 1011.1 |
| 20260506183157 | 53 | 287 | 6.1 | 8.7 | 0.00 | 0.05 | 0.04 | 84 | 1011.1 |
| 20260506182657 | 54 | 244 | 2.6 | 11.3 | 0.00 | 0.05 | 0.04 | 83 | 1011.0 |
| 20260506182207 | 54 | 351 | 3.5 | 11.3 | 0.00 | 0.05 | 0.04 | 83 | 1010.9 |
| 20260506181655 | 54 | 261 | 7.8 | 11.3 | 0.00 | 0.05 | 0.04 | 83 | 1010.9 |
| 20260506181157 | 54 | 307 | 6.1 | 11.3 | 0.00 | 0.05 | 0.04 | 83 | 1010.9 |
| 20260506180655 | 54 | 314 | 5.2 | 11.3 | 0.00 | 0.06 | 0.04 | 84 | 1010.6 |
| 20260506180157 | 54 | 324 | 5.2 | 7.8 | 0.00 | 0.06 | 0.04 | 84 | 1010.6 |
| 20260506175654 | 54 | 294 | 3.5 | 9.6 | 0.00 | 0.06 | 0.04 | 84 | 1010.6 |
| 20260506175159 | 54 | 293 | 3.5 | 9.6 | 0.00 | 0.06 | 0.04 | 83 | 1010.6 |
| 20260506174655 | 55 | 299 | 5.2 | 7.8 | 0.00 | 0.06 | 0.04 | 83 | 1010.6 |
| 20260506174155 | 55 | 267 | 3.5 | 9.6 | 0.00 | 0.06 | 0.04 | 83 | 1010.4 |
| 20260506173657 | 55 | 281 | 3.5 | 9.6 | 0.00 | 0.06 | 0.04 | 83 | 1010.5 |
| 20260506173155 | 55 | 287 | 5.2 | 7.0 | 0.00 | 0.07 | 0.04 | 83 | 1010.3 |
| 20260506172706 | 55 | 242 | 4.3 | 7.8 | 0.00 | 0.07 | 0.04 | 83 | 1010.6 |
| 20260506172200 | 55 | 290 | 4.3 | 9.6 | 0.00 | 0.07 | 0.04 | 82 | 1010.2 |
| 20260506171656 | 55 | 284 | 7.8 | 9.6 | 0.00 | 0.07 | 0.04 | 82 | 1010.3 |
| 20260506171155 | 55 | 349 | 2.6 | 11.3 | 0.00 | 0.07 | 0.04 | 82 | 1010.2 |
| 20260506170655 | 55 | 316 | 2.6 | 11.3 | 0.00 | 0.07 | 0.04 | 81 | 1010.2 |
| 20260506170154 | 56 | 303 | 4.3 | 12.2 | 0.00 | 0.08 | 0.04 | 81 | 1010.3 |
| 20260506165936 | 56 | 277 | 3.5 | 12.2 | 0.00 | 0.08 | 0.04 | 80 | 1010.0 |
| 20260506165159 | 56 | 315 | 4.3 | 8.7 | 0.00 | 0.08 | 0.04 | 80 | 1010.1 |
| 20260506164655 | 57 | 306 | 7.0 | 9.6 | 0.00 | 0.08 | 0.04 | 81 | 1010.0 |
| 20260506164157 | 57 | 293 | 7.8 | 13.9 | 0.00 | 0.08 | 0.04 | 80 | 1010.1 |
| 20260506163655 | 57 | 284 | 9.6 | 13.9 | 0.00 | 0.08 | 0.04 | 79 | 1010.1 |
| 20260506163154 | 58 | 270 | 7.8 | 13.9 | 0.00 | 0.08 | 0.04 | 78 | 1010.0 |
| 20260506162801 | 58 | 272 | 7.0 | 13.0 | 0.00 | 0.08 | 0.04 | 79 | 1009.8 |
| 20260506162731 | 58 | 303 | 5.2 | 12.2 | 0.00 | 0.08 | 0.04 | 79 | 1009.9 |
| 20260506162607 | 58 | 298 | 6.1 | 14.8 | 0.00 | 0.08 | 0.04 | 78 | 1009.9 |
| 20260506162430 | 58 | 324 | 9.6 | 19.1 | 0.00 | 0.08 | 0.04 | 78 | 1009.7 |
| 20260506162320 | 58 | 306 | 9.6 | 19.1 | 0.00 | 0.08 | 0.04 | 78 | 1009.9 |
| 20260506162230 | 58 | 279 | 7.8 | 14.8 | 0.00 | 0.08 | 0.00 | 79 | 1009.7 |
| 20260506161954 | 58 | 303 | 12.2 | 14.8 | 0.00 | 0.08 | 0.04 | 79 | 1009.7 |
| 20260506155130 | 58 | 305 | 11.3 | 13.0 | 0.00 | 0.08 | 0.04 | 81 | 1009.7 |
| 20260506154629 | 57 | 322 | 4.3 | 11.3 | 0.00 | 0.08 | 0.04 | 83 | 1009.8 |
| 20260506154130 | 56 | 269 | 5.2 | 13.0 | 0.00 | 0.08 | 0.04 | 85 | 1009.8 |
| 20260506153641 | 56 | 275 | 2.6 | 13.0 | 0.00 | 0.08 | 0.04 | 84 | 1009.8 |
| 20260506153129 | 56 | 301 | 7.8 | 11.3 | 0.00 | 0.08 | 0.04 | 85 | 1010.1 |
| 20260506152630 | 56 | 296 | 8.7 | 13.9 | 0.00 | 0.08 | 0.04 | 85 | 1009.8 |
| 20260506152130 | 57 | 268 | 7.8 | 13.9 | 0.00 | 0.08 | 0.04 | 85 | 1010.1 |
| 20260506151630 | 57 | 279 | 6.1 | 13.0 | 0.00 | 0.08 | 0.04 | 86 | 1009.9 |
| 20260506151136 | 56 | 286 | 1.7 | 7.8 | 0.00 | 0.08 | 0.04 | 88 | 1009.9 |
| 20260506150630 | 56 | 294 | 1.7 | 8.7 | 0.00 | 0.08 | 0.04 | 89 | 1009.8 |
| 20260506150537 | 56 | 276 | 2.6 | 10.4 | 0.00 | 0.08 | 0.04 | 88 | 1010.0 |
| 20260506145632 | 56 | 255 | 6.1 | 11.3 | 0.00 | 0.08 | 0.04 | 88 | 1009.7 |
| 20260506145138 | 56 | 269 | 5.2 | 11.3 | 0.00 | 0.08 | 0.04 | 87 | 1010.1 |
| 20260506144629 | 56 | 258 | 5.2 | 11.3 | 0.00 | 0.09 | 0.04 | 87 | 1009.6 |
| 20260506144130 | 56 | 248 | 7.0 | 11.3 | 0.00 | 0.09 | 0.04 | 86 | 1009.7 |
| 20260506143630 | 56 | 234 | 7.8 | 10.4 | 0.00 | 0.09 | 0.04 | 87 | 1009.5 |
| 20260506143132 | 56 | 253 | 3.5 | 10.4 | 0.00 | 0.09 | 0.04 | 87 | 1009.7 |
| 20260506142630 | 56 | 257 | 7.0 | 10.4 | 0.00 | 0.09 | 0.04 | 87 | 1009.7 |
| 20260506142535 | 57 | 256 | 5.2 | 12.2 | 0.00 | 0.09 | 0.04 | 87 | 1009.6 |
| 20260506141702 | 57 | 200 | 3.5 | 13.0 | 0.00 | 0.10 | 0.04 | 87 | 1009.7 |
| 20260506141259 | 57 | 271 | 9.6 | 16.5 | 0.00 | 0.10 | 0.04 | 85 | 1009.5 |
| 20260506140129 | 58 | 296 | 4.3 | 12.2 | 0.00 | 0.10 | 0.04 | 82 | 1009.6 |
| 20260506140030 | 58 | 265 | 7.0 | 9.6 | 0.00 | 0.11 | 0.04 | 82 | 1009.5 |
| 20260506135129 | 58 | 237 | 3.5 | 7.8 | 0.00 | 0.11 | 0.04 | 83 | 1009.4 |
| 20260506134640 | 58 | 278 | 4.3 | 7.8 | 0.00 | 0.11 | 0.04 | 84 | 1009.4 |
| 20260506134130 | 58 | 260 | 3.5 | 9.6 | 0.00 | 0.11 | 0.04 | 84 | 1009.6 |
| 20260506134027 | 58 | 295 | 3.5 | 20.0 | 0.00 | 0.11 | 0.04 | 83 | 1009.3 |
| 20260506133130 | 58 | 271 | 7.0 | 20.0 | 0.00 | 0.11 | 0.04 | 80 | 1009.3 |
| 20260506133015 | 59 | 257 | 7.0 | 16.5 | 0.00 | 0.12 | 0.04 | 78 | 1009.5 |
| 20260506132238 | 59 | 239 | 13.0 | 16.5 | 0.00 | 0.12 | 0.04 | 76 | 1009.4 |
| 20260506132135 | 60 | 288 | 8.7 | 15.6 | 0.00 | 0.12 | 0.04 | 75 | 1009.3 |
| 20260506132044 | 59 | 247 | 6.1 | 12.2 | 0.00 | 0.12 | 0.04 | 75 | 1009.4 |
| 20260506131940 | 60 | 268 | 5.2 | 10.4 | 0.00 | 0.12 | 0.04 | 76 | 1009.2 |
| 20260506131823 | 60 | 241 | 3.5 | 12.2 | 0.00 | 0.13 | 0.00 | 77 | 1008.9 |
| 20260506125627 | 59 | 282 | 2.6 | 12.2 | 0.00 | 0.13 | 0.04 | 76 | 1009.2 |
| 20260506125124 | 59 | 218 | 4.3 | 10.4 | 0.00 | 0.13 | 0.04 | 76 | 1009.2 |
| 20260506124625 | 59 | 247 | 5.2 | 11.3 | 0.00 | 0.13 | 0.04 | 77 | 1009.2 |
| 20260506124125 | 59 | 229 | 5.2 | 11.3 | 0.00 | 0.13 | 0.04 | 76 | 1009.2 |
| 20260506123628 | 59 | 245 | 3.5 | 8.7 | 0.00 | 0.14 | 0.04 | 77 | 1009.2 |
| 20260506123501 | 59 | 213 | 1.7 | 8.7 | 0.00 | 0.14 | 0.04 | 78 | 1009.2 |
| 20260506122625 | 58 | 244 | 4.3 | 5.2 | 0.00 | 0.14 | 0.04 | 80 | 1009.0 |
| 20260506122125 | 58 | 243 | 0.9 | 3.5 | 0.00 | 0.14 | 0.04 | 81 | 1009.3 |
| 20260506121638 | 58 | 197 | 1.7 | 3.5 | 0.00 | 0.15 | 0.04 | 82 | 1009.0 |
| 20260506121128 | 57 | 223 | 2.6 | 3.5 | 0.00 | 0.15 | 0.04 | 83 | 1009.2 |
| 20260506120957 | 57 | 249 | 0.0 | 7.0 | 0.00 | 0.15 | 0.04 | 83 | 1009.1 |
| 20260506120429 | 57 | 224 | 3.5 | 7.0 | 0.00 | 0.16 | 0.04 | 83 | 1009.4 |
| 20260506120311 | 57 | 141 | 3.5 | 7.0 | 0.00 | 0.16 | 0.04 | 84 | 1009.4 |
| 20260506115452 | 57 | 145 | 0.9 | 5.2 | 0.00 | 0.16 | 0.04 | 83 | 1009.2 |
| 20260506114956 | 57 | 201 | 0.0 | 4.3 | 0.00 | 0.17 | 0.04 | 83 | 1009.3 |
| 20260506114125 | 57 | 161 | 0.0 | 5.2 | 0.00 | 0.17 | 0.04 | 83 | 1009.3 |
| 20260506114009 | 57 | 200 | 1.7 | 6.1 | 0.00 | 0.17 | 0.04 | 82 | 1009.4 |
| 20260506113155 | 57 | 305 | 0.9 | 6.1 | 0.00 | 0.17 | 0.04 | 82 | 1009.3 |
| 20260506112728 | 57 | 206 | 1.7 | 6.1 | 0.00 | 0.17 | 0.04 | 82 | 1009.4 |
| 20260506112149 | 57 | 286 | 1.7 | 5.2 | 0.00 | 0.17 | 0.04 | 82 | 1009.1 |
| 20260506111948 | 57 | 206 | 0.0 | 8.7 | 0.00 | 0.17 | 0.04 | 83 | 1009.3 |
| 20260506111145 | 57 | 233 | 1.7 | 8.7 | 0.00 | 0.17 | 0.04 | 81 | 1009.4 |
| 20260506110654 | 57 | 140 | 0.9 | 10.4 | 0.00 | 0.17 | 0.04 | 82 | 1009.2 |
| 20260506110449 | 57 | 261 | 1.7 | 10.4 | 0.00 | 0.17 | 0.04 | 82 | 1009.2 |
| 20260506105706 | 57 | 253 | 1.7 | 7.8 | 0.00 | 0.17 | 0.04 | 84 | 1009.1 |
| 20260506105125 | 57 | 101 | 1.7 | 7.8 | 0.00 | 0.17 | 0.04 | 85 | 1009.3 |
| 20260506104634 | 56 | 279 | 1.7 | 10.4 | 0.00 | 0.17 | 0.04 | 86 | 1009.2 |
| 20260506104144 | 56 | 219 | 6.1 | 11.3 | 0.00 | 0.17 | 0.04 | 86 | 1009.1 |
| 20260506103639 | 56 | 258 | 1.7 | 11.3 | 0.00 | 0.17 | 0.04 | 85 | 1009.2 |
| 20260506103137 | 56 | 226 | 2.6 | 6.1 | 0.00 | 0.17 | 0.04 | 85 | 1009.1 |
| 20260506102738 | 57 | 220 | 1.7 | 10.4 | 0.00 | 0.17 | 0.00 | 84 | 1008.9 |
| 20260506102710 | 56 | 179 | 1.7 | 8.7 | 0.00 | 0.17 | 0.04 | 85 | 1009.3 |
| 20260506102503 | 56 | 216 | 5.2 | 8.7 | 0.00 | 0.17 | 0.04 | 85 | 1008.9 |
| 20260506102328 | 56 | 222 | 3.5 | 7.0 | 0.00 | 0.17 | 0.04 | 85 | 1009.0 |
| 20260506102234 | 56 | 258 | 3.5 | 7.0 | 0.00 | 0.17 | 0.04 | 85 | 1008.9 |
| 20260506102143 | 56 | 226 | 1.7 | 8.7 | 0.00 | 0.17 | 0.04 | 84 | 1008.9 |
| 20260506095627 | 57 | 216 | 2.6 | 10.4 | 0.00 | 0.17 | 0.04 | 84 | 1009.1 |
| 20260506095127 | 57 | 151 | 4.3 | 11.3 | 0.00 | 0.17 | 0.04 | 84 | 1008.9 |
| 20260506094627 | 56 | 309 | 2.6 | 11.3 | 0.00 | 0.17 | 0.04 | 86 | 1009.1 |
| 20260506094127 | 56 | 207 | 3.5 | 10.4 | 0.00 | 0.17 | 0.04 | 86 | 1009.0 |
| 20260506093635 | 56 | 170 | 1.7 | 7.8 | 0.00 | 0.17 | 0.04 | 87 | 1009.2 |
| 20260506093130 | 56 | 22 | 0.0 | 7.8 | 0.00 | 0.17 | 0.04 | 88 | 1009.1 |
| 20260506092846 | 55 | 144 | 1.7 | 5.2 | 0.00 | 0.17 | 0.04 | 88 | 1009.1 |
| 20260506092818 | 55 | 182 | 1.7 | 6.1 | 0.00 | 0.17 | 0.04 | 88 | 1009.1 |
| 20260506091630 | 55 | 284 | 1.7 | 8.7 | 0.00 | 0.17 | 0.04 | 89 | 1009.2 |
| 20260506091130 | 55 | 242 | 2.6 | 8.7 | 0.00 | 0.17 | 0.04 | 90 | 1009.1 |
| 20260506090630 | 55 | 278 | 2.6 | 5.2 | 0.00 | 0.17 | 0.04 | 91 | 1008.9 |
| 20260506090140 | 54 | 124 | 1.7 | 5.2 | 0.00 | 0.17 | 0.04 | 91 | 1009.1 |
| 20260506085627 | 54 | 207 | 1.7 | 7.0 | 0.00 | 0.17 | 0.04 | 91 | 1009.0 |
| 20260506085131 | 54 | 228 | 0.0 | 7.0 | 0.00 | 0.17 | 0.04 | 91 | 1009.1 |
| 20260506085011 | 54 | 232 | 3.5 | 7.8 | 0.00 | 0.17 | 0.04 | 91 | 1008.8 |
| 20260506084130 | 54 | 229 | 0.0 | 11.3 | 0.00 | 0.17 | 0.04 | 91 | 1009.0 |
| 20260506083627 | 54 | 156 | 0.0 | 11.3 | 0.00 | 0.17 | 0.04 | 91 | 1008.9 |
| 20260506083127 | 54 | 213 | 5.2 | 13.0 | 0.00 | 0.17 | 0.04 | 91 | 1008.9 |
| 20260506082858 | 54 | 226 | 4.3 | 7.8 | 0.00 | 0.17 | 0.04 | 92 | 1008.9 |
| 20260506082817 | 53 | 194 | 1.7 | 13.0 | 0.00 | 0.17 | 0.04 | 91 | 1008.9 |
| 20260506081627 | 53 | 209 | 2.6 | 6.1 | 0.00 | 0.17 | 0.04 | 92 | 1008.9 |
| 20260506081127 | 54 | 224 | 5.2 | 6.1 | 0.00 | 0.17 | 0.04 | 92 | 1008.8 |
| 20260506080629 | 54 | 115 | 0.0 | 6.1 | 0.00 | 0.17 | 0.04 | 92 | 1008.8 |
| 20260506080140 | 54 | 119 | 0.9 | 4.3 | 0.00 | 0.17 | 0.04 | 93 | 1008.9 |
| 20260506073130 | 54 | 308 | 0.0 | 12.2 | 0.00 | 0.17 | 0.04 | 93 | 1008.8 |
| 20260506073013 | 53 | 214 | 1.7 | 12.2 | 0.00 | 0.17 | 0.04 | 93 | 1008.9 |
| 20260506072238 | 54 | 217 | 1.7 | 4.3 | 0.00 | 0.17 | 0.04 | 94 | 1008.8 |
| 20260506072105 | 53 | 155 | 2.6 | 5.2 | 0.00 | 0.17 | 0.04 | 94 | 1008.8 |
| 20260506072014 | 53 | 226 | 4.3 | 5.2 | 0.00 | 0.17 | 0.04 | 94 | 1008.9 |
| 20260506071920 | 53 | 4 | 1.7 | 5.2 | 0.00 | 0.17 | 0.04 | 94 | 1009.0 |
| 20260506071805 | 53 | 263 | 0.9 | 5.2 | 0.00 | 0.17 | 0.00 | 95 | 1008.9 |
| 20260506062122 | 52 | 185 | 1.7 | 5.2 | 0.00 | 0.17 | 0.04 | 96 | 1008.6 |
| 20260506062040 | 52 | 80 | 0.0 | 5.2 | 0.00 | 0.17 | 0.04 | 96 | 1008.8 |
| 20260506061122 | 52 | 267 | 1.7 | 5.2 | 0.00 | 0.17 | 0.04 | 97 | 1008.7 |
| 20260506060622 | 52 | 146 | 0.0 | 5.2 | 0.00 | 0.17 | 0.04 | 97 | 1008.7 |
| 20260506060122 | 52 | 209 | 0.9 | 5.2 | 0.00 | 0.17 | 0.04 | 97 | 1008.7 |
| 20260506050639 | 51 | 225 | 2.6 | 3.5 | 0.00 | 0.17 | 0.04 | 98 | 1008.5 |
| 20260506050124 | 51 | 197 | 0.9 | 4.3 | 0.00 | 0.17 | 0.04 | 98 | 1008.7 |
| 20260506045121 | 51 | 144 | 1.7 | 5.2 | 0.00 | 0.17 | 0.04 | 98 | 1008.5 |
| 20260506044622 | 51 | 211 | 2.6 | 5.2 | 0.00 | 0.17 | 0.04 | 99 | 1008.6 |
| 20260506044122 | 51 | 213 | 1.7 | 3.5 | 0.00 | 0.17 | 0.04 | 98 | 1008.5 |
| 20260506043622 | 51 | 223 | 0.9 | 3.5 | 0.00 | 0.17 | 0.04 | 98 | 1008.6 |
| 20260506043323 | 51 | 103 | 0.0 | 3.5 | 0.00 | 0.17 | 0.04 | 98 | 1008.7 |
| 20260506043317 | 51 | 212 | 1.7 | 3.5 | 0.00 | 0.17 | 0.04 | 98 | 1008.8 |
| 20260506043253 | 51 | 193 | 1.7 | 3.5 | 0.00 | 0.17 | 0.04 | 98 | 1008.7 |
| 20260506042509 | 51 | 191 | 1.7 | 2.6 | 0.00 | 0.17 | 0.04 | 99 | 1008.6 |
| 20260506042333 | 51 | 184 | 0.9 | 3.5 | 0.00 | 0.17 | 0.04 | 98 | 1008.9 |
| 20260506041941 | 51 | 126 | 0.9 | 3.5 | 0.00 | 0.17 | 0.04 | 98 | 1008.7 |
| 20260506041826 | 51 | 94 | 0.0 | 3.5 | 0.00 | 0.17 | 0.00 | 98 | 1008.6 |
| 20260506035923 | 51 | 194 | 0.0 | 3.5 | 0.00 | 0.17 | 0.04 | 98 | 1008.9 |
| 20260506035122 | 51 | 289 | 0.0 | 3.5 | 0.00 | 0.17 | 0.04 | 98 | 1008.9 |
| 20260506034622 | 51 | 156 | 2.6 | 3.5 | 0.00 | 0.17 | 0.04 | 98 | 1009.1 |
| 20260506034122 | 51 | 233 | 1.7 | 5.2 | 0.00 | 0.17 | 0.04 | 98 | 1009.1 |
| 20260506033622 | 52 | 253 | 1.7 | 5.2 | 0.00 | 0.17 | 0.04 | 98 | 1008.9 |
| 20260506033122 | 52 | 216 | 1.7 | 4.3 | 0.00 | 0.17 | 0.04 | 98 | 1009.2 |
| 20260506032622 | 52 | 195 | 1.7 | 3.5 | 0.00 | 0.17 | 0.04 | 98 | 1009.0 |
| 20260506032507 | 52 | 216 | 0.0 | 3.5 | 0.00 | 0.17 | 0.04 | 98 | 1009.1 |
| 20260506031622 | 52 | 261 | 0.0 | 2.6 | 0.00 | 0.17 | 0.04 | 98 | 1008.9 |
| 20260506031127 | 52 | 211 | 0.0 | 2.6 | 0.00 | 0.17 | 0.04 | 98 | 1009.0 |
| 20260506030622 | 52 | 152 | 0.0 | 4.3 | 0.00 | 0.17 | 0.04 | 98 | 1009.0 |
| 20260506030138 | 52 | 140 | 0.0 | 4.3 | 0.00 | 0.17 | 0.04 | 98 | 1009.0 |
| 20260506025621 | 52 | 215 | 2.6 | 2.6 | 0.00 | 0.17 | 0.04 | 98 | 1009.2 |
| 20260506025135 | 52 | 143 | 0.0 | 5.2 | 0.00 | 0.17 | 0.04 | 98 | 1009.1 |
| 20260506025038 | 52 | 225 | 2.6 | 5.2 | 0.00 | 0.17 | 0.04 | 98 | 1009.2 |
| 20260506024121 | 52 | 119 | 2.6 | 3.5 | 0.00 | 0.17 | 0.04 | 98 | 1009.0 |
| 20260506023622 | 53 | 119 | 0.9 | 2.6 | 0.00 | 0.17 | 0.04 | 98 | 1009.2 |
| 20260506023122 | 53 | 175 | 0.9 | 3.5 | 0.00 | 0.17 | 0.04 | 98 | 1009.2 |
| 20260506022624 | 53 | 230 | 1.7 | 5.2 | 0.00 | 0.17 | 0.04 | 98 | 1009.1 |
| 20260506022124 | 53 | 150 | 1.7 | 5.2 | 0.00 | 0.17 | 0.04 | 98 | 1009.3 |
| 20260506021622 | 53 | 209 | 2.6 | 3.5 | 0.00 | 0.17 | 0.04 | 98 | 1009.4 |
| 20260506021122 | 53 | 173 | 0.0 | 4.3 | 0.00 | 0.17 | 0.04 | 98 | 1009.3 |
| 20260506021014 | 53 | 110 | 0.9 | 4.3 | 0.00 | 0.17 | 0.04 | 98 | 1009.2 |
| 20260506020122 | 53 | 220 | 2.6 | 3.5 | 0.00 | 0.17 | 0.04 | 98 | 1009.2 |
| 20260506015621 | 53 | 123 | 0.0 | 2.6 | 0.00 | 0.17 | 0.04 | 98 | 1009.0 |
| 20260506015124 | 53 | 184 | 0.9 | 2.6 | 0.00 | 0.17 | 0.04 | 98 | 1009.0 |
| 20260506014621 | 53 | 231 | 0.9 | 3.5 | 0.00 | 0.17 | 0.04 | 98 | 1008.9 |
| 20260506014122 | 53 | 238 | 0.0 | 3.5 | 0.00 | 0.17 | 0.04 | 98 | 1009.2 |
| 20260506013624 | 53 | 182 | 0.0 | 3.5 | 0.00 | 0.17 | 0.04 | 98 | 1009.2 |
| 20260506013122 | 53 | 128 | 0.0 | 7.0 | 0.00 | 0.17 | 0.04 | 98 | 1009.5 |
| 20260506012622 | 54 | 148 | 1.7 | 7.0 | 0.00 | 0.17 | 0.04 | 98 | 1009.6 |
| 20260506012341 | 54 | 214 | 0.0 | 2.6 | 0.03 | 0.17 | 0.04 | 98 | 1009.0 |
| 20260506012227 | 54 | 128 | 0.0 | 2.6 | 0.01 | 0.17 | 0.04 | 98 | 1009.4 |
| 20260506012124 | 54 | 217 | 0.0 | 3.5 | 0.02 | 0.17 | 0.04 | 98 | 1009.2 |
| 20260506012033 | 54 | 145 | 0.9 | 3.5 | 0.03 | 0.17 | 0.04 | 98 | 1009.3 |
| 20260506011942 | 54 | 231 | 0.9 | 1.7 | 0.03 | 0.17 | 0.04 | 98 | 1009.3 |
| 20260506011829 | 54 | 182 | 0.0 | 2.6 | 0.03 | 0.17 | 0.00 | 98 | 1009.5 |
| 20260506005300 | 54 | 244 | 1.7 | 4.3 | 0.03 | 0.17 | 0.04 | 98 | 1009.5 |
| 20260506005238 | 54 | 103 | 0.0 | 4.3 | 0.03 | 0.17 | 0.04 | 98 | 1009.5 |
| 20260506004154 | 54 | 99 | 0.9 | 3.5 | 0.04 | 0.17 | 0.04 | 98 | 1009.6 |
| 20260506003643 | 54 | 179 | 0.0 | 3.5 | 0.04 | 0.17 | 0.04 | 98 | 1009.7 |
| 20260506003441 | 54 | 140 | 0.0 | 8.7 | 0.04 | 0.17 | 0.04 | 98 | 1009.6 |